Location: Aldenham
(51.6667°N, 0.3500°W)
Time: 07:03:56
(UTC+00:00)

COSMO-SKYMED 1 - Pass Details

Date: 18 November 2025
Orbit: 579 x 581 km, 97.9° (Epoch: 17 December)

Event Time Altitude Azimuth Distance (km) Brightness Sun altitude
Exits shadow 17:27:54 18° 84° (E) 1,446 3.8 -12.3°
Maximum altitude 17:28:16 18° 91° (E) 1,437 3.8 -12.3°
Drops below altitude 10° 17:31:09 10° 136° (SE) 1,894 4.8 -12.8°
Sets 17:33:51 0° 155° (SSE) 2,787 5.8 -13.2°
